Flag for Poland Weather past 2 weeks in Chorzów, Poland

Now
39 °F

Light rain. Fog.


Feels Like: 32 °F
Forecast: 46 / 50 °F
Wind: 10 mph from Southwest

Location: Katowice Airport

Current Time: Dec 18, 2014 at 8:39:18 AM

Latest Report: Dec 18, 2014 at 8:00 AM


Visibility: 2 mi

Pressure: 29.86 "Hg

Humidity: 93%

Dew point: 37 °F

Location of ChorzówLocation

Historic Weather in Chorzów — Graph

°F

Chorzów temperature yesterday

Maximum temperature yesterday: 41 °F (at 12:00 AM)
Minimum temperature yesterday: 36 °F (at 8:00 AM)
Average temperature yesterday: 38 °F

Past Weeks' High & Low Weather Summary

 TemperatureHumidityPressure
High48 °F (Dec 13, 5:00 AM)100% (Dec 4, 3:30 AM)30.39 "Hg (Dec 4, 3:30 AM)
Low16 °F (Dec 10, 7:00 AM)46% (Dec 12, 8:00 PM)29.71 "Hg (Dec 12, 5:30 PM)
Average37 °F85%30.02 "Hg
* Reported Dec 3 7:00 AM — Dec 18 7:30 AM, Chorzów, Weather by CustomWeather, © 2014

Note: Actual official high and low records may vary slightly from our data, if they occured in-between our weather recording intervals... More about our weather records

Advertising

Chorzów weather history for previous 24 hours

 ConditionsComfort  
Time TempWeatherWind HumidityBarometerVisibility
7:30 AM
Dec 18
39 °FLight rain. Fog.9 mph93%29.86 "Hg2 mi
7:00 AM39 °FLight rain. Fog.10 mph93%29.83 "Hg2 mi
6:30 AM39 °FLight rain. Partly cloudy.10 mph87%29.83 "Hg5 mi
6:00 AM39 °FLight rain. Partly cloudy.10 mph87%29.83 "Hg5 mi
5:30 AM39 °FLight rain. Passing clouds.10 mph87%29.80 "Hg5 mi
5:00 AM39 °FLight rain. Passing clouds.10 mph87%29.80 "Hg5 mi
4:30 AM39 °FLight rain. Passing clouds.9 mph87%29.80 "Hg4 mi
4:00 AM39 °FPassing clouds.12 mph87%29.77 "Hg5 mi
3:30 AM39 °FPassing clouds.12 mph87%29.77 "Hg5 mi
3:00 AM39 °FPassing clouds.9 mph87%29.77 "Hg5 mi
2:30 AM39 °FPassing clouds.12 mph87%29.77 "Hg5 mi
2:00 AM39 °FPassing clouds.13 mph87%29.77 "Hg5 mi
1:30 AM37 °FPartly cloudy.14 mph93%29.77 "Hg5 mi
1:00 AM37 °FPartly cloudy.13 mph87%29.77 "Hg5 mi
12:30 AM37 °FPartly cloudy.12 mph87%29.77 "Hg5 mi
12:00 AM37 °FLight rain. Passing clouds.9 mph87%29.77 "Hg4 mi
11:30 PM
Dec 17
36 °FLight rain. Partly cloudy.9 mph93%29.77 "Hg4 mi
11:00 PM39 °FLight rain. Partly cloudy.10 mph81%29.80 "Hg4 mi
10:30 PM37 °FPassing clouds.10 mph75%29.77 "HgN/A
10:00 PM37 °FPassing clouds.8 mph75%29.77 "HgN/A
9:30 PM37 °FClear.3 mph75%29.77 "Hg5 mi
9:00 PM37 °FClear.7 mph75%29.77 "Hg5 mi
8:30 PM37 °FClear.9 mph75%29.77 "Hg5 mi
8:00 PM37 °FClear.8 mph75%29.80 "Hg5 mi
7:30 PM37 °FClear.7 mph75%29.80 "Hg4 mi
7:00 PM37 °FClear.8 mph75%29.80 "Hg4 mi
6:30 PM37 °FFog.5 mph81%29.80 "Hg3 mi
6:00 PM37 °FFog.5 mph81%29.80 "Hg2 mi
5:30 PM36 °FFog.5 mph87%29.80 "Hg2 mi
5:00 PM36 °FFog.5 mph87%29.80 "Hg2 mi
4:30 PM36 °FFog.3 mph87%29.80 "Hg2 mi
4:00 PM36 °FClear.5 mph87%29.83 "Hg4 mi
3:30 PM36 °FPassing clouds.3 mph87%29.83 "HgN/A
3:00 PM37 °FPassing clouds.3 mph75%29.83 "HgN/A
2:30 PM39 °FPassing clouds.3 mph70%29.83 "HgN/A
2:00 PM37 °FPassing clouds.6 mph81%29.83 "HgN/A
1:30 PM37 °FPassing clouds.8 mph81%29.86 "HgN/A
1:00 PM37 °FScattered clouds.10 mph81%29.86 "HgN/A
12:30 PM37 °FScattered clouds.10 mph81%29.86 "HgN/A
12:00 PM37 °FScattered clouds.14 mph81%29.86 "HgN/A
11:30 AM37 °FScattered clouds.13 mph87%29.86 "HgN/A
11:00 AM37 °FScattered clouds.9 mph87%29.86 "HgN/A
10:30 AM36 °FScattered clouds.10 mph93%29.89 "HgN/A
10:00 AM36 °FScattered clouds.10 mph93%29.89 "HgN/A
9:30 AM36 °FScattered clouds.10 mph93%29.89 "HgN/A
9:00 AM36 °FPassing clouds.7 mph93%29.86 "HgN/A
8:30 AM36 °FScattered clouds.9 mph93%29.86 "HgN/A
8:00 AM36 °FBroken clouds.8 mph100%29.86 "Hg5 mi
Weather by CustomWeather, © 2014

See weather overviewHow to use our weather pages